• în Republica Moldova
  • Lista ţărilor
  • Pe 7 zile
  • Temperatura apei
  • Hartă satelitară
  • Meteo pe hartă
  • Widget-uri
  • user-avatar
    Intrare

    Meteo pe oră la Namibe

    Astăzi, 14 Decembrie, Joi

    Timp Temperatura Precipitaţii Vânt Presiune Umiditate
    00:00 +28°C° 0 mm 3 m/s 759 mmHg 69%
    01:00 +28°C° 0 mm 2 m/s 758 mmHg 69%
    02:00 +28°C° 0 mm 2 m/s 758 mmHg 68%
    03:00 +28°C° 0 mm 2 m/s 758 mmHg 68%
    04:00 +28°C° 0 mm 2 m/s 758 mmHg 67%
    05:00 +28°C° 0 mm 2 m/s 758 mmHg 67%
    06:00 +28°C° 0 mm 2 m/s 758 mmHg 66%
    07:00 +28°C° 0 mm 2 m/s 758 mmHg 66%
    08:00 +30°C° 0 mm 2 m/s 758 mmHg 60%
    09:00 +31°C° 0 mm 2 m/s 758 mmHg 54%
    10:00 +34°C° 0 mm 2 m/s 758 mmHg 49%
    11:00 +34°C° 0 mm 3 m/s 758 mmHg 47%
    12:00 +35°C° 0 mm 4 m/s 757 mmHg 46%
    13:00 +36°C° 0 mm 5 m/s 757 mmHg 44%
    14:00 +35°C° 0 mm 6 m/s 756 mmHg 47%
    15:00 +34°C° 0 mm 6 m/s 756 mmHg 49%
    16:00 +33°C° 0 mm 6 m/s 755 mmHg 52%
    17:00 +32°C° 0 mm 6 m/s 756 mmHg 56%
    18:00 +29°C° 0 mm 5 m/s 756 mmHg 60%
    19:00 +28°C° 0 mm 4 m/s 756 mmHg 64%
    20:00 +28°C° 0 mm 4 m/s 757 mmHg 64%
    21:00 +28°C° 0 mm 3 m/s 757 mmHg 64%
    22:00 +28°C° 0 mm 2 m/s 758 mmHg 63%
    23:00 +28°C° 0 mm 2 m/s 757 mmHg 63%

    Mâine, 15 Decembrie, Vineri

    Timp Temperatura Precipitaţii Vânt Presiune Umiditate
    00:00 +28°C° 0 mm 2 m/s 757 mmHg 64%
    01:00 +28°C° 0 mm 2 m/s 757 mmHg 64%
    02:00 +27°C° 0 mm 2 m/s 757 mmHg 66%
    03:00 +27°C° 0 mm 2 m/s 757 mmHg 67%
    04:00 +26°C° 0 mm 2 m/s 757 mmHg 69%
    05:00 +27°C° 0 mm 2 m/s 757 mmHg 69%
    06:00 +27°C° 0 mm 2 m/s 757 mmHg 69%
    07:00 +27°C° 0 mm 2 m/s 758 mmHg 69%
    08:00 +29°C° 0 mm 2 m/s 758 mmHg 61%
    09:00 +30°C° 0 mm 2 m/s 758 mmHg 53%
    10:00 +33°C° 0 mm 3 m/s 758 mmHg 45%
    11:00 +34°C° 0 mm 4 m/s 757 mmHg 43%
    12:00 +35°C° 0 mm 4 m/s 756 mmHg 40%
    13:00 +36°C° 0 mm 5 m/s 756 mmHg 37%
    14:00 +35°C° 0 mm 5 m/s 755 mmHg 39%
    15:00 +34°C° 0 mm 6 m/s 755 mmHg 40%
    16:00 +33°C° 0 mm 6 m/s 754 mmHg 41%
    17:00 +32°C° 0 mm 5 m/s 755 mmHg 45%
    18:00 +30°C° 0 mm 5 m/s 755 mmHg 49%
    19:00 +28°C° 0 mm 4 m/s 756 mmHg 53%
    20:00 +28°C° 0 mm 4 m/s 756 mmHg 53%
    21:00 +28°C° 0 mm 4 m/s 757 mmHg 54%
    22:00 +28°C° 0 mm 3 m/s 758 mmHg 54%
    23:00 +27°C° 0 mm 3 m/s 757 mmHg 56%

    Poimâine, 16 Decembrie, Sâmbătă

    Timp Temperatura Precipitaţii Vânt Presiune Umiditate
    00:00 +27°C° 0 mm 3 m/s 757 mmHg 57%
    01:00 +27°C° 0 mm 3 m/s 756 mmHg 59%
    02:00 +26°C° 0 mm 3 m/s 756 mmHg 62%
    03:00 +26°C° 0 mm 3 m/s 756 mmHg 64%
    04:00 +25°C° 0 mm 3 m/s 756 mmHg 67%
    05:00 +25°C° 0 mm 3 m/s 756 mmHg 68%
    06:00 +25°C° 0 mm 3 m/s 757 mmHg 69%
    07:00 +25°C° 0 mm 3 m/s 757 mmHg 70%
    08:00 +27°C° 0 mm 3 m/s 757 mmHg 60%
    09:00 +29°C° 0 mm 3 m/s 757 mmHg 49%
    10:00 +31°C° 0 mm 3 m/s 758 mmHg 39%
    11:00 +33°C° 0 mm 4 m/s 757 mmHg 37%
    12:00 +34°C° 0 mm 4 m/s 757 mmHg 35%
    13:00 +35°C° 0 mm 5 m/s 756 mmHg 33%
    14:00 +34°C° 0 mm 5 m/s 756 mmHg 36%
    15:00 +32°C° 0 mm 5 m/s 755 mmHg 39%
    16:00 +30°C° 0 mm 6 m/s 755 mmHg 43%
    17:00 +29°C° 0 mm 5 m/s 756 mmHg 47%
    18:00 +28°C° 0 mm 5 m/s 756 mmHg 51%
    19:00 +27°C° 0 mm 4 m/s 757 mmHg 55%
    20:00 +27°C° 0 mm 4 m/s 757 mmHg 55%
    21:00 +27°C° 0 mm 4 m/s 757 mmHg 56%
    22:00 +27°C° 0 mm 3 m/s 758 mmHg 56%
    23:00 +27°C° 0 mm 3 m/s 757 mmHg 57%

    17 Decembrie, Duminică

    Timp Temperatura Precipitaţii Vânt Presiune Umiditate
    00:00 +27°C° 0 mm 3 m/s 757 mmHg 58%
    01:00 +27°C° 0 mm 3 m/s 757 mmHg 59%
    02:00 +27°C° 0 mm 3 m/s 756 mmHg 61%
    03:00 +26°C° 0 mm 3 m/s 756 mmHg 63%
    04:00 +26°C° 0 mm 3 m/s 756 mmHg 66%
    05:00 +26°C° 0 mm 3 m/s 757 mmHg 66%
    06:00 +26°C° 0 mm 2 m/s 757 mmHg 67%
    07:00 +26°C° 0 mm 2 m/s 757 mmHg 67%
    08:00 +28°C° 0 mm 2 m/s 757 mmHg 62%
    09:00 +29°C° 0 mm 2 m/s 758 mmHg 56%
    10:00 +31°C° 0 mm 2 m/s 758 mmHg 51%
    11:00 +33°C° 0 mm 3 m/s 757 mmHg 48%
    12:00 +34°C° 0 mm 3 m/s 757 mmHg 45%
    13:00 +35°C° 0 mm 4 m/s 756 mmHg 42%
    14:00 +34°C° 0 mm 4 m/s 756 mmHg 45%
    15:00 +34°C° 0 mm 5 m/s 755 mmHg 49%
    16:00 +33°C° 0 mm 5 m/s 755 mmHg 52%
    17:00 +32°C° 0 mm 4 m/s 756 mmHg 57%
    18:00 +29°C° 0 mm 4 m/s 756 mmHg 63%
    19:00 +28°C° 0 mm 3 m/s 757 mmHg 69%
    20:00 +27°C° 0 mm 3 m/s 757 mmHg 70%
    21:00 +27°C° 0 mm 2 m/s 758 mmHg 71%
    22:00 +27°C° 0 mm 2 m/s 758 mmHg 72%
    23:00 +27°C° 0 mm 1 m/s 758 mmHg 72%

    18 Decembrie, Luni

    Timp Temperatura Precipitaţii Vânt Presiune Umiditate
    00:00 +27°C° 0 mm 1 m/s 757 mmHg 72%
    01:00 +27°C° 0 mm 1 m/s 757 mmHg 72%
    02:00 +27°C° 0 mm 1 m/s 757 mmHg 72%
    03:00 +27°C° 0 mm 1 m/s 757 mmHg 72%
    04:00 +28°C° 0 mm 1 m/s 756 mmHg 72%
    05:00 +28°C° 0 mm 1 m/s 757 mmHg 71%
    06:00 +28°C° 0 mm 1 m/s 757 mmHg 70%
    07:00 +28°C° 0 mm 1 m/s 757 mmHg 69%
    08:00 +30°C° 0 mm 2 m/s 757 mmHg 63%
    09:00 +31°C° 0 mm 2 m/s 757 mmHg 57%
    10:00 +34°C° 0 mm 2 m/s 757 mmHg 52%
    11:00 +34°C° 0 mm 3 m/s 757 mmHg 50%
    12:00 +35°C° 0 mm 4 m/s 756 mmHg 49%
    13:00 +35°C° 0 mm 5 m/s 756 mmHg 48%
    14:00 +34°C° 0 mm 5 m/s 755 mmHg 51%
    15:00 +33°C° 0 mm 5 m/s 755 mmHg 53%
    16:00 +32°C° 0 mm 5 m/s 755 mmHg 55%
    17:00 +30°C° 0 mm 4 m/s 756 mmHg 60%
    18:00 +29°C° 0 mm 4 m/s 756 mmHg 64%
    19:00 +28°C° 0 mm 3 m/s 756 mmHg 68%
    20:00 +28°C° 0 mm 2 m/s 757 mmHg 69%
    21:00 +28°C° 0 mm 2 m/s 757 mmHg 70%
    22:00 +28°C° 0 mm 2 m/s 758 mmHg 71%
    23:00 +28°C° 0,1 mm 2 m/s 758 mmHg 71%

    19 Decembrie, Marţi

    Timp Temperatura Precipitaţii Vânt Presiune Umiditate
    00:00 +28°C° 0,1 mm 2 m/s 757 mmHg 72%
    01:00 +27°C° 0,1 mm 2 m/s 757 mmHg 72%
    02:00 +27°C° 0,2 mm 2 m/s 757 mmHg 73%
    03:00 +27°C° 0,2 mm 2 m/s 756 mmHg 73%
    04:00 +27°C° 0,2 mm 2 m/s 756 mmHg 74%
    05:00 +27°C° 0,1 mm 2 m/s 757 mmHg 74%
    06:00 +27°C° 0,1 mm 2 m/s 757 mmHg 75%
    07:00 +27°C° 0,1 mm 1 m/s 757 mmHg 75%
    08:00 +28°C° 0 mm 2 m/s 757 mmHg 70%
    09:00 +30°C° 0 mm 2 m/s 757 mmHg 65%
    10:00 +31°C° 0 mm 3 m/s 757 mmHg 59%
    11:00 +33°C° 0 mm 4 m/s 757 mmHg 57%
    12:00 +33°C° 0 mm 4 m/s 756 mmHg 54%
    13:00 +34°C° 0 mm 5 m/s 756 mmHg 52%
    14:00 +33°C° 0 mm 5 m/s 755 mmHg 54%
    15:00 +33°C° 0 mm 5 m/s 755 mmHg 55%
    16:00 +32°C° 0 mm 5 m/s 755 mmHg 57%
    17:00 +30°C° 0 mm 4 m/s 756 mmHg 62%
    18:00 +28°C° 0 mm 4 m/s 756 mmHg 67%
    19:00 +27°C° 0 mm 3 m/s 757 mmHg 71%
    20:00 +27°C° 0 mm 3 m/s 757 mmHg 72%
    21:00 +27°C° 0 mm 2 m/s 757 mmHg 73%
    22:00 +26°C° 0 mm 2 m/s 758 mmHg 74%
    23:00 +26°C° 0 mm 2 m/s 757 mmHg 74%
    Arată mai mult